Location: Clinton NY
(43.0598°N, 75.3602°W)
Time: 01:54:22
(UTC-04:00)

Iridium 11 - Visible Passes

Search period start: 23 October 2014 00:00
Search period end: 02 November 2014 00:00
Orbit: 776 x 779 km, 86.4° (Epoch: 22 October)

Date Brightness Start Highest point End Pass type
(mag) Time Alt. Az. Time Alt. Az. Time Alt. Az.
23 Oct 8.8 04:59:45 10° NE 05:01:25 11° ENE 05:03:04 10° E visible
23 Oct 5.5 06:37:39 10° N 06:42:53 88° W 06:48:05 10° S visible
23 Oct 6.8 19:35:40 10° SSW 19:40:36 43° W 19:45:34 10° N visible
24 Oct 6.5 06:04:14 10° N 06:09:19 51° E 06:14:22 10° SSE visible
24 Oct 5.7 19:01:47 10° S 19:06:59 78° W 19:12:14 10° N visible
25 Oct 7.6 05:31:06 10° NNE 05:35:37 29° ENE 05:40:05 10° SE visible
25 Oct 5.6 18:28:25 10° SSE 18:33:30 58° E 18:38:37 10° N visible
25 Oct 8.4 20:11:15 10° WSW 20:14:38 17° WNW 20:18:03 10° NNW visible
26 Oct 8.4 04:58:31 10° NE 05:01:46 17° ENE 05:05:01 10° ESE visible
26 Oct 5.5 06:37:49 10° N 06:42:57 61° W 06:48:04 10° SSW visible
26 Oct 7.5 19:36:16 10° SW 19:40:49 30° W 19:45:24 10° NNW visible
27 Oct 5.7 06:04:14 10° N 06:09:27 74° E 06:14:39 10° S visible
27 Oct 6.4 19:02:02 10° SSW 19:07:07 54° W 19:12:14 10° N visible
28 Oct 6.8 05:30:55 10° NNE 05:35:50 41° E 05:40:43 10° SSE visible
28 Oct 5.5 18:28:21 10° S 18:33:33 84° E 18:38:47 10° N visible
28 Oct 8.7 20:13:00 10° W 20:14:59 12° WNW 20:16:59 10° NW visible
29 Oct 7.8 04:57:57 10° NNE 05:02:04 23° ENE 05:06:10 10° SE visible
29 Oct 5.9 06:38:04 10° NNW 06:42:58 43° W 06:47:51 10° SSW visible
29 Oct 8.1 19:37:07 10° SW 19:41:04 22° WNW 19:45:03 10° NNW visible
30 Oct 8.5 04:25:48 10° NE 04:28:10 13° ENE 04:30:33 10° E visible
30 Oct 5.4 06:04:19 10° N 06:09:33 78° W 06:14:44 10° S visible
30 Oct 7.1 19:02:29 10° SSW 19:07:18 38° W 19:12:09 10° NNW visible
31 Oct 6.1 05:30:50 10° N 05:36:00 58° E 05:41:07 10° SSE visible
31 Oct 6.0 18:28:29 10° S 18:33:39 69° W 18:38:52 10° N visible
01 Nov 7.2 04:57:38 10° NNE 05:02:19 32° E 05:06:57 10° SE visible
01 Nov 6.3 06:38:27 10° NNW 06:42:56 30° W 06:47:25 10° SW visible
01 Nov 8.5 19:38:22 10° WSW 19:41:22 15° WNW 19:44:24 10° NW visible
